Location: LDNL
(36.4545°S, 141.6685°E)
Time: 12:16:19
(UTC+10:00)

Tiangong - Visible Passes

Search period start: 26 June 2022 00:00
Search period end: 06 July 2022 00:00
Orbit: 384 x 388 km, 41.5° (Epoch: 25 June)

Date Brightness Start Highest point End Pass type
(mag) Time Alt. Az. Time Alt. Az. Time Alt. Az.
28 Jun 4.1 06:36:25 10° N 06:38:38 17° NE 06:40:52 10° E visible
29 Jun 1.8 07:12:50 10° NW 07:16:00 58° NNE 07:19:11 10° ESE visible
30 Jun 2.8 06:14:32 14° NNW 06:16:49 32° NNE 06:19:45 10° E visible
01 Jul 4.2 05:18:54 15° ENE 05:18:54 15° ENE 05:19:58 10° E visible
01 Jul 1.0 06:51:11 11° WNW 06:54:17 79° SSW 06:57:31 10° ESE visible
02 Jul 1.7 05:55:16 57° NE 05:55:16 57° NE 05:58:11 10° ESE visible
03 Jul 1.4 06:31:24 32° WSW 06:32:32 50° SSW 06:35:43 10° ESE visible
04 Jul 3.5 05:35:07 21° ESE 05:35:07 21° ESE 05:36:22 10° ESE visible
04 Jul 2.1 07:07:21 10° WSW 07:10:16 32° S 07:13:15 10° ESE visible
05 Jul 2.0 06:10:57 37° S 06:10:57 37° S 06:13:48 10° ESE visible
